www.pogodaiklimat.ru

Погода и климат >> Архив погоды >> Россия >> Алтайский край >> Шелаболиха


ПОГОДА в Шелаболихе

  • Прогноз погоды в Шелаболихе
  • Монитор погоды в Шелаболихе
  • Климат города

АРХИВ ПОГОДЫ в Шелаболихе

Время (UTC), дата Ветер
(напр.,м/с)
 
Видим.   Явления Облачность Т
(С)
Тd
(С)
f
(%)
Тe
(С)
Тes
(С)
Комфортность P
(гПа)
Po
(гПа)
Тmin
(С)
Tmax
(С)
R
(мм)
R24
(мм)
S
(см)
09 18.06 СВ 2 50 км 4 балла +30.2 +15.1 40 +33 +40 душно 998.8 980.0
12 18.06 СЗ 3
{7}
50 км 6/3 1000 м
[Cu hum Ci fib]
+26.5 +18.5 61 +31 +33 душно 998.0 978.6 +31.0
15 18.06 С 3 50 км 7 баллов +22.7 +17.4 72 +28 +28 душно 999.3 980.0
18 18.06 В 2
{24}
50 км 2 балла +16.1 +15.5 96 +16 +16 1001.0 981.3
21 18.06 ЮЗ 1 4000 м дымка ясно +14.0 +13.7 98 +14 +14 1001.2 981.3
00 19.06 штиль 0
{24}
10 км ясно +15.9 +15.6 98 +16 +18 999.3 979.3 +12.2 10
03 19.06 СВ 3 50 км 10 баллов +20.0 +16.8 82 +23 +23 комфорт 999.4 980.0
06 19.06 В 4
{13}
50 км в посл. час гроза 7 баллов +25.1 +18.5 67 +30 +33 душно 995.0 976.0
09 19.06 ЮЗ 10
{16}
50 км 10 баллов +27.7 +15.7 48 +28 +28 жарко 993.6 974.7
12 19.06 ЮЗ 8-13
{18}
50 км {гроза, ливн. осадки} 10/9 600 м
[Sc diur, vesp Ci fib]
+22.3 +12.2 53 +25 +25 комфорт 996.4 976.8 +28.2 0.0
15 19.06 З 8
{15}
50 км 2 балла +17.0 +12.1 73 +16 +16 1003.8 984.0
18 19.06 ЮЗ 4
{11}
50 км ясно +14.1 +12.2 88 +13 +13 1004.6 984.3
21 19.06 ЮЗ 3 50 км ясно +13.2 +11.1 87 +12 +12 1005.4 985.3
00 20.06 ЮЗ 3
{15}
50 км 8/8 600 м
[Sc]
+15.7 +11.9 78 +15 +15 1005.8 985.6 +12.8
03 20.06 ЮЗ 4 50 км 9 баллов +20.8 +13.2 62 +23 +24 комфорт 1006.3 986.7
06 20.06 ЮЗ 5
{10}
50 км 10/9 600 м
[Cb cap Ci fib]
+22.6 +12.0 51 +25 +26 комфорт 1004.6 984.9
09 20.06 ЮЗ 5
{10}
50 км 9 баллов +24.6 +11.2 43 +26 +27 жарко 1004.6 985.3
12 20.06 ЮЗ 5
{10}
50 км {гроза, ливн. осадки} 9/6 600 м
[Cb cap Ac trans]
+23.2 +11.7 48 +26 +26 жарко 1004.2 984.5 +25.2 1
15 20.06 Ю 3 50 км 6 баллов +17.9 +11.5 66 +18 +18 1006.5 986.7
18 20.06 ЮЗ 3 50 км ясно +15.0 +12.8 87 +14 +14 1006.0 985.7
21 20.06 ЮЗ 3 50 км 4 балла +14.3 +13.0 92 +13 +13 1006.7 986.7
00 21.06 З 2
{9}
50 км в посл. час ливневой дождь 9/9 600 м
[Cb cap]
+14.7 +13.3 91 +14 +14 1006.9 986.6 +13.8 2
03 21.06 З 3 50 км ясно +19.0 +13.2 69 +20 +28 1009.0 989.3
06 21.06 З 4 50 км 6/4 600 м
[Cb cap Ci fib]
+22.8 +12.5 52 +26 +32 жарко 1007.9 988.1
09 21.06 ЮЗ 4 50 км 6 баллов +24.0 +11.3 45 +25 +29 комфорт 1007.4 988.0
12 21.06 ЮЗ 1
{9}
50 км 3/3 1000 м
[Cu hum]
+25.2 +10.6 40 +26 +29 жарко 1006.4 986.8 +25.3
15 21.06 В 1 50 км 4 балла +20.9 +12.6 59 +24 +24 комфорт 1007.6 988.0
18 21.06 Ю 2 50 км 10/3 600 м
[Cb cap Ci fib]
+17.4 +12.8 74 +18 +18 1006.7 986.6
21 21.06 ЮЗ 3 50 км 2 балла +15.7 +12.4 81 +15 +15 1006.6 986.7
00 22.06 ЮЗ 3
{5}
50 км 3/0
[Ci fib]
+18.5 +12.9 70 +19 +20 1005.5 985.5 +15.1
03 22.06 Ю 4 50 км 2 балла +24.6 +14.9 55 +27 +32 жарко 1006.0 986.7
06 22.06 Ю 4 50 км 3/0
[Ci fib]
+29.3 +15.0 42 +32 +42 душно 1004.0 984.7
09 22.06 Ю 5 50 км 1 балл +30.5 +11.4 31 +31 +37 жарко 1004.2 985.3
12 22.06 Ю 4
{9}
50 км ясно +29.7 +12.1 34 +31 +33 жарко 1002.9 984.0 +30.7
15 22.06 Ю 3 50 км 1 балл +25.3 +12.5 45 +27 +27 жарко 1001.9 982.7
18 22.06 Ю 3 50 км ясно +23.1 +11.0 46 +25 +25 комфорт 1000.7 981.1
21 22.06 ЮЗ 4 50 км ясно +20.2 +11.4 57 +22 +22 комфорт 1000.8 981.3
00 23.06 З 2
{9}
50 км 6/4 600 м
[Cb cap Ci fib]
+20.9 +12.3 58 +24 +25 комфорт 1002.5 982.6 +17.7
03 23.06 СВ 1 50 км 10 баллов +24.3 +13.5 51 +27 +27 жарко 1003.3 984.0
06 23.06 СВ 2 50 км 10/0
[Ac cuf Ci fib]
+26.8 +15.4 50 +30 +36 душно 1003.0 983.5
09 23.06 С 3 50 км 6 баллов +27.4 +13.3 42 +29 +33 жарко 1003.1 984.0
12 23.06 СЗ 4
{8}
50 км 10/1 600 м
[Cu med, cong Ac trans Ci sp]
+24.3 +15.5 58 +27 +28 жарко 1002.7 983.2 +27.7
15 23.06 ЮВ 1
{12}
50 км гроза без осадков 10 баллов +17.5 +13.2 76 +19 +19 1006.5 986.7
18 23.06 С 1 50 км {гроза, ливн. осадки} 8/8 600 м
[Sc]
+16.1 +14.8 92 +17 +17 1004.0 983.8
21 23.06 З 1 10 км слабый ливневой дождь 10 баллов +15.4 +14.8 96 +16 +16 1005.2 985.3
00 24.06 З 2
{12}
20 км {гроза, ливн. осадки} 10/3 600 м
[Sc diur, vesp Ci]
+15.5 +15.1 97 +15 +16 1005.7 985.4 +13.1 2
03 24.06 штиль 0 50 км 10 баллов +20.1 +15.3 74 +22 +22 комфорт 1006.3 986.7
06 24.06 СВ 2 50 км 8/6 1000 м
[Cu hum Ci fib]
+23.9 +16.9 65 +28 +33 душно 1005.5 985.9
09 24.06 СВ 2 50 км 9 баллов +25.6 +15.3 53 +29 +30 душно 1005.9 986.7
12 24.06 В 3
{5}
50 км 10/3 600 м
[Cb cap Ci fib]
+25.6 +13.5 47 +28 +29 жарко 1004.7 985.2 +26.0
15 24.06 В 1 50 км 9 баллов +21.7 +15.5 68 +25 +25 комфорт 1006.2 986.7
18 24.06 СВ 1 50 км 6/0
[Ci fib]
+19.0 +16.9 88 +22 +22 комфорт 1005.3 985.4
21 24.06 СВ 2 50 км 7 баллов +18.2 +16.9 92 +19 +19 1005.0 985.3
00 25.06 СВ 2
{5}
50 км 10/9 600 м
[Cb cap Ci fib]
+18.5 +17.0 91 +20 +20 1004.8 984.8 +16.4
03 25.06 В 2 50 км 10 баллов +22.0 +16.9 73 +26 +26 душно 1004.7 985.3
06 25.06 СВ 1 50 км 10/4 600 м
[Cb cap Ac As Cc]
+26.3 +18.2 61 +31 +37 душно 1003.6 984.1

 

Местоположение метеостанции Шелаболиха (Алтайский край, Россия): широта 53.42 долгота 82.60 высота над уровнем моря 170 м.

В архиве по умолчанию представлена погода в Шелаболихе за последнюю неделю. Архивные данные за месяц целиком и за предыдущие месяцы, начиная с января 2011 года, Вы можете получить, выбрав интересующий диапазон дат из раскрывающегося списка и нажав кнопку "Ввод!".


*Определитесь, кто Вы:
робот инопланетянин человек

Внимание! Время в таблицах - всемирное. Для получения местного времени необходимо прибавить поправку, которая в Шелаболихе равна 7 ч.

Смотрите также архив погоды в соседних городах и на ближайших метеорологических станциях:

Погода в Ребрихе (Алтайский край, Россия) (42 км)
Погода в Сузуне (Новосибирская область, Россия) (43 км)
Погода в Барнауле (Алтайский край, Россия) (61 км)
Погода в Тальменке (Алтайский край, Россия) (78 км)
Погода в Камень-на-Оби (Алтайский край, Россия) (98 км)
Погода в Алейской (Алтайский край, Россия) (101 км)
Погода в Мамонтово (Алтайский край, Россия) (103 км)
Погода в Посевной (Новосибирская область, Россия) (109 км)
Погода в Ордынском (Новосибирская область, Россия) (115 км)
Погода в Дальнем (Новосибирская область, Россия) (119 км)

Пояснения к столбцам:

Ветер - указаны скорость ветра в м/с - средняя за 10 мин, порывы в срок и между сроками (в фигурных скобках) и направление, откуда дует ветер: С - северный, СВ - северо-восточный, В - восточный, ЮВ - юго-восточный, Ю - южный, ЮЗ - юго-западный, З - западный, СЗ - северо-западный.
Видимость - горизонтальная дальность видимости в метрах или километрах. При видимости от 1 до 10 км при отсутствии осадков обычно наблюдается дымка, при ухудшении видимости до 1 км и менее - туман. В сухую погоду видимость может ухудшаться дымом, пылью или мглою.
Явления - указаны атмосферные явления, наблюдавшиеся в срок или в последний час перед сроком; фигурными скобками обозначены явления, наблюдавшиеся между сроками (за 1-3 часа до срока); квадратными скобками обозначены град или гололедные отложения с указанием их диаметра в мм.
Облачность - указаны через наклонную черту общая и нижняя облачность в баллах и высота нижней границы облаков в метрах; квадратными скобками обозначены формы облаков: Ci - перистые, Cs - перисто-слоистые, Cc - перисто-кучевые, Ac - высококучевые, As - высокослоистые, Sc - слоисто-кучевые, Ns - слоисто-дождевые, Cu - кучевые, Cb - кучево-дождевые. Подробнее классификацию облаков см. в Атласе облаков (PDF).
T - Температура воздуха - температура, измеренная на высоте 2 м над землей.
Td - Температура точки росы - температура, при понижении до которой содержащийся в воздухе водяной пар достигнет насыщения.
f - Относительная влажность воздуха - влажноcть воздуха, измеренная на высоте 2 м над землей.
Te - Эффективная температура - температура, которую ощущает одетый по сезону человек в тени. Характеристика душности погоды. При расчете учитывается влияние влажности воздуха и скорости ветра на теплоощущения человека.
Tes - Эффективная температура на солнце - температура, которую ощущает человек, с поправкой на солнечный нагрев. Характеристика знойности погоды. Зависит от высоты солнца над горизонтом, облачности и скорости ветра. Ночью, в пасмурную погоду, а также при ветре 12 м/с и более поправка равна нулю.
P - Атмосферное давление - приведенное к уровню моря атмосферное давление.
Po - Атмосферное давление - измеренное на уровне метеостанции атмосферное давление.
Tmin - Минимальная температура - минимум температуры воздуха на высоте 2 м над землей.
Tmax - Максимальная температура - максимум температуры воздуха на высоте 2 м над землей.
R - Количество осадков - Количество выпавших осадков за период времени, мм. При наведении курсора мыши на число - период времени, за который выпало указанное количество осадков.
R24 - Количество осадков - Количество выпавших осадков за 24 часа, мм.
S - Снежный покров - Высота снежного покрова, см. При наведении курсора мыши на число - состояние снежного покрова и степень покрытия местности в баллах.